Regional Weather Roundup
Issued by NWS

Home | Current Version | Previous Version | Graphics & Text | Print | Product List | Glossary Off
Versions: 1 2 3 4 5 6 7 8 9 10 11 12 13 14 15 16 17 18 19 20 21 22 23 24 25 26 27 28 29 30 31 32 33 34 35 36 37 38 39 40 41 42 43 44 45 46 47 48 49 50

000
ASUS45 KCYS 052210
RWRWY

WYOMING REGIONAL WEATHER ROUNDUP
NATIONAL WEATHER SERVICE CHEYENNE WY
300 PM MST FRI FEB 05 2016

NOTE:  "FAIR" INDICATES FEW OR NO CLOUDS BELOW 12,000 FEET
WITH NO SIGNIFICANT WEATHER AND/OR OBSTRUCTIONS TO VISIBILITY.

WYZ001-052300-
YELLOWSTONE NATIONAL PARK

CITY           SKY/WX    TMP DP  RH WIND       PRES   REMARKS
LK YELLOWSTONE   N/A     22  13  68 VRB7      30.36R WCI  13
W YELLOWSTONE  NOT AVBL

$$
WYZ002>013-054>058-071-098>099-052300-
NORTHERN WYOMING

CITY           SKY/WX    TMP DP  RH WIND       PRES   REMARKS
JACKSON        MOSUNNY   21  16  79 CALM      30.40S
CODY           FAIR      43  14  31 W16G25    30.19S
GREYBULL       FAIR      37  16  42 S8        30.25F WCI  31
WORLAND        FAIR      37  12  35 SE6       30.24F WCI  32
SHERIDAN       MOSUNNY   43  10  26 SE3       30.17F
BUFFALO        FAIR      34  17  50 S16       30.18F WCI  24
GILLETTE       FAIR      34  20  56 SW9       30.20S WCI  27
HULETT         FAIR      37  21  52 SW10      30.19F WCI  30
NEWCASTLE      FAIR      37  16  41 NW15G21   30.23S WCI  28

$$
WYZ014>020-022>026-101>103-052300-
CENTRAL WYOMING

CITY           SKY/WX    TMP DP  RH WIND       PRES   REMARKS
BIG PINEY      FAIR      30  17  58 N22       30.34R WCI  17
PINEDALE       FAIR      28  16  59 W21G26    30.33R WCI  15
DUBOIS         FAIR      32  14  47 NW22G31   30.25R WCI  19
LANDER         FAIR      34  14  43 E6        30.22S WCI  29
RIVERTON       FAIR      27  12  53 NE6       30.25R WCI  20
CASPER         FAIR      23  12  62 SW24G30   30.26F WCI   7
DOUGLAS        FAIR      31  15  52 NW15      30.25F WCI  20

$$
WYZ021-027>030-104>119-052300-
SOUTHERN WYOMING

CITY           SKY/WX    TMP DP  RH WIND       PRES   REMARKS
EVANSTON       FAIR      27  18  69 SW15      30.42S WCI  15
FORT BRIDGER   CLEAR     28  21  74 W22       30.43F WCI  15
ROCK SPRINGS   FAIR      26  17  68 W26       30.35S WCI  10
DIXON          CLOUDY    26  15  63 SW5       30.44S WCI  20
RAWLINS        FAIR      21  14  74 W23G32    30.30R WCI   5
SARATOGA       FAIR      25  12  58 W13       30.35S WCI  13
LARAMIE        FAIR      25  13  60 NE10      30.21F WCI  15
CHEYENNE       FAIR      31  12  45 N20       30.22R WCI  19
TORRINGTON     FAIR      33  17  51 W14       30.26R WCI  23
PINE BLUFFS    FAIR      32  18  55 NW21G26   30.26R WCI  20

$$



USA.gov is the U.S. government's official web portal to all federal, state and local government web resources and services.